Tracking 19794 objects as of 22-Jul-2019
HD Live streaming from Space Station
objects crossing your sky now

THORAD DELTA 1 DEB

Track THORAD DELTA 1 DEB now!
10-day predictions


NORAD ID: 8152
Int'l Code: 1974-089S
Perigee: 1,386.2 km
Apogee: 1,475.7 km
Inclination: 101.6 °
Period: 114.3 minutes
Semi major axis: 7801 km
RCS: 0.0989 m2 (small)
Launch date: November 15, 1974
Source: United States (US)
Launch site: AIR FORCE WESTERN TEST RANGE (AFWTR)

Note: This is SATELLITE DEBRIS
aabbcc
Your satellite tracking list
Your tracking list is empty




NASA's NSSDC Master Catalog

Two Line Element Set (TLE):
1  8152U 74089S   19202.89865112 -.00000021  00000-0  13670-3 0  9992
2  8152 101.5881 169.8144 0057360 235.9624 147.2041 12.59782947 53266
Source of the keplerian elements: AFSPC